Skip Page Navigation
NASA JPL Caltech
NASA Logo - Jet Propulsion Laboratory + View the NASA Portal
+ Center for Near-Earth Object Studies
JPL Home Earth Solar System Stars & Galaxies Technology
JPL Solar System Dynamics
BODIES ORBITS EPHEMERIDES TOOLS PHYSICAL DATA DISCOVERY FAQ SITE MAP
JPL Small-Body Database Browser
Search: [ help ]  
14751 (2688 P-L)
Classification: Main-belt Asteroid          SPK-ID: 2014751
Ephemeris | Orbit Diagram | Orbital Elements | Mission Design | Physical Parameters | Discovery Circumstances | Close-Approach Data ]

[ show orbit diagram ]
Orbital Elements at Epoch 2459200.5 (2020-Dec-17.0) TDB
Reference: JPL 27 (heliocentric ecliptic J2000)
 Element Value Uncertainty (1-sigma)   Units 
e .0989242917285265 3.826e-08  
a 3.015858614228343 1.9355e-08 au
q 2.717516936862429 1.1911e-07 au
i 1.639185944722747 4.2364e-06 deg
node 125.9708971710204 0.00014349 deg
peri 201.4035513552236 0.00014491 deg
M 213.2281346051982 2.0891e-05 deg
tp 2459980.429246919897
(2023-Feb-04.92924692)
0.00011284 TDB
period 1912.999661998622
5.24
1.8415e-05
5.042e-08
d
yr
n .1881861283884844 1.8116e-09 deg/d
Q 3.314200291594258 2.1269e-08 au
  Orbit Determination Parameters
   # obs. used (total)      872  
   data-arc span      22095 days (60.49 yr)  
   first obs. used      1960-09-24  
   last obs. used      2021-03-23  
   planetary ephem.      DE441  
   SB-pert. ephem.      SB441-N16  
   condition code      0  
   norm. resid. RMS      .57601  
   source      ORB  
   producer      Otto Matic  
   solution date      2021-May-04 01:53:30  

Additional Information
 Earth MOID = 1.70405 au 
 Jupiter MOID = 1.97964 au 
 T_jup = 3.240 
[ show covariance matrix ]

Ephemeris | Orbit Diagram | Orbital Elements | Mission Design | Physical Parameters | Discovery Circumstances | Close-Approach Data ]

Physical Parameter Table
Parameter Symbol Value Units Sigma Reference Notes
absolute magnitude H 15.06   n/a MPCxxxxx  

14751 (2688 P-L)          Discovered 1960-Sep-24 by van Houten, C. J., van Houten-Groeneveld, I., Gehrels, T. at Palomar
Reference: 20000418/Numbers.arcLast Updated: 2004-04-19

[ show close-approach data ]
Alternate Designations
 2688 P-L = 1999 AO26 
Ephemeris | Orbit Diagram | Orbital Elements | Mission Design | Physical Parameters | Discovery Circumstances | Close-Approach Data ]
ABOUT SSD CREDITS/AWARDS PRIVACY/COPYRIGHT GLOSSARY LINKS
FirstGov 2021-May-11 15:19 UT
(server date/time)  
NASA Home Page
Site Manager:   Ryan S. Park
Webmaster  Alan B. Chamberlin